Welcome to the New NWS' Forecast!
Most changes are behind the scenes, but click here for differences you might notice.
Latest weather observations around

Albuquerque, Albuquerque International Airport (KABQ)

Using English Units (Switch to International System of Units)
Date/ Time (MDT) Wind (mph) Vis. (mi) Weather Sky Cond. Temp (°F) Rel. Humidity Wind Chill (°F) Heat Index (°F) Pressure Precip. (in)
Air Dwpt 6 hour Altimeter (inHg) Sea level (inHg) 1 hr 3 hr 6 hr
Max Min
Sep 24 10:52 SW 3 10 Clear CLR 63 25     23%     30 29.81      
Sep 24 09:52 S 3 10 Clear CLR 60 22     23%     30 29.82      
Sep 24 08:52 SSE 3 10 Mostly Clear FEW080 56 24     29%     29.99 29.81      
Sep 24 07:52 SE 6 10 Mostly Clear FEW080 52 34     50%     29.98 29.81      
Sep 24 06:52 WSW 7 10 Mostly Clear FEW080 54 25     32%     29.96 29.79      
Sep 24 05:52 S 5 10 Partly Cloudy SCT080 55 39     55%     29.95 29.75      
Sep 24 04:52 S 5 10 Mostly Cloudy BKN090 55 50     83%     29.93 29.74      
Sep 24 03:52 ESE 5 10 Mostly Cloudy BKN090 BKN110 58 49     72%     29.93 29.71      
Sep 24 02:52 WNW 7 10 Mostly Cloudy SCT090 BKN110 59 53     81%     29.91 29.69      
Sep 24 00:52 NNW 8 10 Mostly Cloudy BKN090 BKN110 61 53     75%     29.88 29.65      
Sep 23 23:52 N 8 10 Mostly Clear FEW095 60 54     80%     29.86 29.65     0
Sep 23 22:52 SW 6 10 Mostly Clear FEW110 62 53     72%     29.85 29.64      
Sep 23 21:52 NNE 3 10 Mostly Cloudy SCT110 BKN130 66 47     50%     29.84 29.62      
Sep 23 20:52 NNW 7 10 Mostly Cloudy FEW060 SCT100 BKN120 68 47     47%     29.84 29.62   0  
Sep 23 20:16 NNE 3 10 Partly Cloudy FEW060 SCT100 SCT130 69 45     42%     29.84        
Sep 23 20:00 ENE 5 10 Mostly Cloudy FEW060 BKN100 BKN130 69 45     42%     29.83        
Sep 23 19:52 E 7 10 Mostly Cloudy FEW060 BKN100 BKN130 69 46     44%     29.83 29.62 0    
Sep 23 18:52 NW 13 10 Mostly Cloudy FEW070 SCT100 SCT150 BKN200 70 44     39%     29.81 29.59 0    
Sep 23 17:52 WSW 11 10 Mostly Cloudy FEW070 SCT110 SCT130 BKN200 74 43     33%   73 29.79 29.55 0   0
Sep 23 16:52 WSW 13 10 Mostly Cloudy FEW065 BKN095 BKN130 BKN200 73 44     35%   72 29.78 29.55      
Sep 23 16:36   10 Mostly Cloudy FEW065 BKN090 BKN130 BKN180 76 42     30%   75 29.78        
Sep 23 15:52   10 Mostly Cloudy FEW065 SCT080 SCT120 BKN180 77 41     28%   76 29.78 29.54 0    
Sep 23 14:52   10 Partly Cloudy FEW085 SCT120 SCT150 81 40     23%   80 29.79 29.53      
Sep 23 13:52   10 Partly Cloudy FEW080 SCT120 SCT150 80 42     26%   79 29.81 29.56      
Sep 23 12:52   10 Partly Cloudy FEW075 SCT120 SCT150 79 42     27%   78 29.85 29.59      
Sep 23 11:52   10 Mostly Cloudy FEW070 SCT120 BKN150 75 43     32%   74 29.88 29.63     0
Sep 23 10:52 SW 10 10 Mostly Cloudy FEW060 SCT100 BKN130 73 44     35%   72 29.9 29.65      
Sep 23 09:52 SW 6 10 Mostly Cloudy FEW050 SCT100 BKN120 69 46     44%     29.9 29.68 0    
Sep 23 08:52 WSW 3 10 Mostly Cloudy SCT100 BKN120 68 44     42%     29.9 29.66   0  
Sep 23 07:52 ESE 8 10 Clear   64 48     56%     29.89 29.65 0    
Sep 23 06:52 ESE 7 10 Cloudy SCT085 BKN110 OVC150 65 50     58%     29.89 29.64 0    
Sep 23 05:52 ESE 7 10 Cloudy FEW060 BKN110 OVC150 65 49     56%     29.89 29.64 0   0
Sep 23 04:52 ESE 9 10 Cloudy FEW055 OVC110 65 48     54%     29.89 29.64 0    
Sep 23 03:52 ESE 9 10 Cloudy SCT070 OVC100 64 50     60%     29.9 29.65 0    
Sep 23 02:52 SE 6 10 Cloudy SCT050 BKN100 OVC150 67 44     44%     29.9 29.64 0 0  
Sep 23 01:52 SE 9 10 Mostly Cloudy SCT110 BKN140 67 35     31%     29.9 29.65      
Sep 23 00:52 SSE 7 10 Mostly Cloudy FEW120 BKN250 69 35     29%     29.89 29.64      
Sep 22 23:52 S 9 10 Partly Cloudy SCT130 SCT220 72 34     25%   70 29.9 29.64 0   0
Sep 22 22:52 S 8 10 Light Rain SCT110 BKN220 72 35     26%   70 29.9 29.65 0    
Sep 22 21:52 SE 9 10 Mostly Cloudy SCT110 BKN250 70 33     26%     29.89 29.65      
Sep 22 20:52 SSW 10 10 Mostly Cloudy SCT110 BKN250 76 35     23%   74 29.88 29.63      
Sep 22 19:52 SW 13 10 Mostly Cloudy BKN110 BKN200 BKN250 80 34     19%   79 29.86 29.61      
Sep 22 18:52 SSW 11 10 Mostly Cloudy BKN110 BKN250 81 35     19%   80 29.86 29.62      
Sep 22 17:52   10 Mostly Cloudy BKN110 BKN250 83 35     18%   80 29.86 29.62      
Sep 22 16:52 SSW 21 10 Mostly Cloudy and Windy BKN110 BKN250 83 35     18%   80 29.86 29.61      
Sep 22 15:52   10 Mostly Cloudy SCT110 BKN210 BKN250 83 37     19%   80 29.86 29.62      
Sep 22 14:52   10 Mostly Cloudy FEW100 SCT190 BKN250 83 38     20%   81 29.89 29.63      
Sep 22 13:52 S 23 10 Mostly Cloudy and Windy FEW080 BKN270 81 36     20%   80 29.91 29.65      
Sep 22 12:52   10 Mostly Cloudy FEW080 BKN270 81 36     20%   80 29.94 29.69      
Sep 22 11:52 SSW 11 10 Mostly Cloudy FEW080 SCT240 BKN280 78 39     25%   77 29.97 29.72      
Sep 22 10:52 S 15 10 Mostly Cloudy FEW080 FEW200 BKN260 75 37     25%   73 29.99 29.75      
Sep 22 09:52   10 Mostly Cloudy FEW070 FEW200 BKN270 73 37     27%   71 30 29.75      
Sep 22 08:52 S 9 10 Mostly Cloudy FEW200 BKN270 69 37     31%     29.99 29.76      
Sep 22 07:52 Calm 10 Mostly Cloudy FEW130 BKN200 BKN250 66 35     32%     29.98 29.73      
Sep 22 06:52 ESE 6 10 Mostly Cloudy FEW130 BKN220 61 36     39%     29.97 29.72      
Sep 22 05:52 ESE 9 10 Clear   61 36     39%     29.96 29.71      
Sep 22 04:52 SE 10 10 Partly Cloudy FEW130 SCT230 61 36     39%     29.96 29.71      
Sep 22 03:52 SE 9 10 Mostly Cloudy SCT130 BKN250 63 37     38%     29.96 29.71      
Sep 22 02:52 S 7 10 Mostly Cloudy FEW100 BKN230 66 37     34%     29.94 29.69      
Sep 22 01:52 SSE 8 10 Partly Cloudy FEW110 SCT220 68 37     32%     29.94 29.68      
Sep 22 00:52 SSE 10 10 Mostly Clear FEW110 68 39     35%     29.94 29.69      
Sep 21 23:52 SE 11 10 Mostly Clear FEW120 69 39     33%     29.94 29.69      
Sep 21 22:52 SSE 13 10 Mostly Clear FEW110 70 36     29%     29.94 29.69      
Sep 21 21:52 SSE 10 10 Mostly Clear FEW110 72 34     25%   70 29.93 29.69      
Sep 21 20:52 S 7 10 Mostly Clear FEW110 75 34     22%   73 29.91 29.68      
Sep 21 19:52 SSW 10 10 Mostly Clear FEW120 81 32     17%   80 29.9 29.66      
Sep 21 18:52   10 Mostly Clear FEW120 84 33     16%   81 29.88 29.64      
Sep 21 17:52 S 20 10 Mostly Clear and Windy FEW120 85 36     17%   82 29.88 29.63      
Sep 21 16:52 S 18 10 Mostly Clear FEW120 86 36     17%   83 29.89 29.64      
Sep 21 15:52 S 11 10 Mostly Clear FEW120 85 32     15%   82 29.91 29.67      
Sep 21 14:52 S 9 10 Mostly Clear FEW120 83 29     14%   80 29.95 29.7      
Sep 21 13:52 S 10 10 Mostly Clear FEW110 82 30     15%   80 29.98 29.74      
Sep 21 12:52 SW 10 10 Mostly Clear FEW100 80 32     17%   79 30.01 29.77      
Sep 21 11:52 SSW 10 10 Clear CLR 78 37     23%   77 30.04 29.78      
Jun 11 21:52 SSE 9 10 Clear   76 5     6%   74 29.94 29.67      
Jun 11 13:52 3 10 Clear CLR 86 9     5%   82 29.97 29.68      
Jun 11 10:52 Calm 10 Mostly Clear FEW220 79 15     9%   77 30.01 29.75      
Jun 10 06:52 ESE 5 10 Clear CLR 65 31     28%     30.01 29.72      
Jun 09 01:52   10 Clear   71 48     44%   70 30.04 29.76      
Jun 08 22:42   10 Mostly Cloudy FEW150 BKN250 76        %     30.04        
Jun 08 20:52 NNW 10 10 Mostly Cloudy FEW160 BKN250 86 19     8%   82 29.98 29.71      
Jun 08 19:52 NW 14 10 Mostly Cloudy SCT160 BKN250 90 14     6%   85 29.97 29.68      
Jun 08 00:52 SE 8 10 Mostly Cloudy FEW140 BKN250 70 47     44%     30.19 29.93      
Jun 07 07:52 E 10 10 Partly Cloudy SCT250 69 48     47%     30.24 29.99      
Jun 05 19:52 ENE 9 10 Mostly Cloudy BKN130 BKN250 89        %     30 29.72